CAPE
4 0 0 0 0 0 0 0 0 0 0 0 0 0 0 0 0 0 0 0 0 0 0 0 0 0 0 0 0 0 0 0 0 0 0 0 0 0 0 0 0 0 0 0
0 3 1 0 0 0 0 0 0 0 0 0 0 0 0 0 0 0 0 0 0 0 0 0 0 0 0 0 0 0 0 0 0 0 0 0 0 0 0 0 0 0 0 0
1 8 3 0 0 0 0 0 0 0 0 0 0 0 0 0 0 0 0 0 0 0 0 0 0 0 0 0 0 0 0 0 0 0 0 0 0 0 0 0 0 0 0 0
9 5 0 0 0 0 1 15 15 12 0 16 17 0 0 0 0 0 0 0 0 0 0 0 0 0 0 0 0 0 0 0 0 0 0 0 0 0 0 0 0 0 0 0
0 1 6 9 0 0 5 19 7 4 10 3 0 0 0 0 0 0 2 0 0 0 0 0 0 0 0 0 0 0 0 0 0 0 0 0 0 0 0 0 0 0 0 0
5 1 0 2 0 0 19 40 24 25 7 7 3 0 0 0 18 10 1 0 0 0 0 0 0 0 0 0 0 0 0 0 0 0 0 0 0 0 0 0 0 0 0 0
22 19 10 1 0 0 21 21 57 25 12 20 11 10 8 3 5 6 1 0 0 0 0 0 0 0 0 0 0 0 0 0 0 0 0 0 0 0 0 0 0 0 0 0
35 34 33 28 6 0 7 42 78 14 1 22 12 7 5 15 6 0 0 0 0 0 0 0 0 0 0 0 0 0 0 0 0 0 0 0 0 0 0 0 0 0 0 0
37 54 99 100 55 13 5 49 126 111 16 1 32 24 16 6 17 13 7 0 0 0 0 0 0 0 0 0 0 0 0 0 0 0 0 0 0 0 0 0 0 0 0 0
32 73 88 92 101 47 6 15 99 98 27 0 0 11 5 33 22 13 0 22 12 0 0 0 0 0 0 0 0 0 0 0 0 0 0 0 0 0 0 0 0 0 0 0
8 22 35 24 48 52 43 5 65 93 10 22 22 21 30 13 21 5 8 23 0 0 36 18 1 0 0 0 0 0 0 0 0 0 0 0 0 0 0 0 0 0 0 2
19 19 36 31 19 9 14 19 48 137 77 0 4 22 8 30 25 6 1 0 1 18 32 57 73 19 8 2 0 0 0 0 0 0 0 0 0 0 0 0 592 401 783 509
15 3 16 0 0 0 18 21 70 26 89 23 20 4 1 2 4 18 20 12 1 2 19 9 1 13 56 30 4 2 0 0 0 0 0 0 0 0 0 20 760 583 620 616
17 0 0 0 0 0 12 56 68 126 22 12 39 31 28 28 22 18 14 23 3 19 26 25 3 5 18 14 3 5 7 5 1 1 0 0 0 0 0 0 284 741 742 674
18 4 0 0 0 0 1 16 28 50 41 5 11 1 0 5 22 13 19 15 5 11 23 0 5 0 0 0 1 0 0 36 42 22 12 1 0 0 0 0 317 782 646 808
6 20 0 0 0 0 9 9 8 14 14 16 4 7 4 33 34 10 13 26 29 22 16 23 2 0 11 3 0 0 0 1 45 75 144 148 151 103 0 12 657 856 838 904
0 9 10 0 0 0 16 21 23 35 20 2 1 7 45 33 16 18 11 28 15 11 22 6 8 2 55 31 0 0 0 0 0 0 7 99 205 227 618 663 807 666 647 312
3 6 8 0 0 1 0 2 1 14 17 8 0 1 33 55 42 37 20 6 10 11 3 5 14 23 4 16 0 0 0 0 0 0 26 68 149 344 705 782 513 155 52 34
5 6 5 18 10 16 8 0 2 3 15 3 2 1 10 1 26 12 12 9 12 22 11 13 29 19 39 0 0 0 0 0 28 28 63 176 166 621 653 295 41 52 26 5
2 1 9 8 7 0 0 0 3 4 7 1 0 7 14 3 9 26 63 22 17 16 0 9 22 2 0 11 3 0 0 10 0 0 97 313 325 635 570 91 59 0 0 0
2 1 1 1 0 0 5 4 2 1 1 0 1 4 3 7 0 7 31 0 5 22 58 54 58 34 4 1 20 0 15 0 0 0 11 322 308 204 93 24 0 0 0 0
1 1 0 0 1 4 1 0 1 0 0 5 3 3 2 1 5 12 3 2 2 0 25 34 4 35 144 202 108 74 4 0 1 22 50 199 170 77 13 3 9 13 8 6
1 1 3 2 1 0 0 0 0 0 2 2 6 5 6 2 16 4 5 1 1 3 2 0 2 0 0 1 0 6 4 25 86 123 114 129 79 85 68 64 47 43 31 14
8 21 10 8 0 0 0 0 0 0 1 1 2 6 8 19 4 3 0 1 4 0 0 0 1 0 19 31 22 26 2 0 0 0 2 6 9 11 10 6 0 0 0 0
14 12 5 9 10 11 1 3 2 2 0 5 4 8 1 6 3 4 2 1 0 0 0 5 29 8 47 37 68 68 17 13 0 0 0 0 1 1 0 0 0 0 0 0
4 6 0 0 1 0 3 21 22 14 19 12 1 17 6 6 5 1 2 1 0 5 15 34 12 2 3 8 7 4 33 42 44 43 16 0 1 0 2 1 1 2 4 6
19 33 7 0 0 5 9 8 5 12 40 0 4 20 7 4 0 1 3 6 0 2 10 27 52 36 29 30 57 58 43 32 47 81 86 71 28 6 8 3 3 1 7 14
CIN
-4 -0 -0 -0 -0 -0 -0 -0 -0 -0 -0 -0 -0 -0 -0 -0 -0 -0 -0 -0 -0 -0 -0 -0 -0 -0 -0 -0 -0 -0 -0 -0 -0 -0 -0 -0 -0 -0 -0 -0 -0 -0 -0 -0
-0 -2 -0 -0 -0 -0 -0 -0 -0 -0 -0 -0 -0 -0 -0 -0 -0 -0 -0 -0 -0 -0 -0 -0 -0 -0 -0 -0 -0 -0 -0 -0 -0 -0 -0 -0 -0 -0 -0 -0 -0 -0 -0 -0
-0 -2 -3 -0 -0 -0 -0 -1 -0 -0 -0 -0 -0 -0 -0 -0 -0 -0 -0 -0 -0 -0 -0 -0 -0 -0 -0 -0 -0 -0 -0 -0 -0 -0 -0 -0 -0 -0 -0 -0 -0 -0 -0 -0
-0 -0 -0 -0 -0 -0 -1 -4 -5 -10 -1 -4 -4 -0 -0 -0 -0 -0 -0 -0 -0 -0 -0 -0 -0 -0 -0 -0 -0 -0 -0 -0 -0 -0 -0 -0 -0 -0 -0 -0 -0 -0 -0 -0
-0 -0 -1 -1 -0 -0 -1 -1 -3 -14 -5 -2 -0 -0 -0 -0 -0 -0 -2 -0 -0 -0 -0 -0 -0 -0 -0 -0 -0 -0 -0 -0 -0 -0 -0 -0 -0 -0 -0 -0 -0 -0 -0 -0
-0 -0 -0 -0 -0 -0 -0 -1 -3 -2 -6 -3 -4 -2 -2 -0 -15 -6 -5 -0 -0 -0 -0 -0 -0 -0 -0 -0 -0 -0 -0 -0 -0 -0 -0 -0 -0 -0 -0 -0 -0 -0 -0 -0
-0 -0 -0 -0 -0 -0 -1 -2 -1 -0 -2 -7 -17 -23 -8 -9 -12 -8 -11 -4 -0 -0 -0 -0 -0 -0 -0 -0 -0 -0 -0 -0 -0 -0 -0 -0 -0 -0 -0 -0 -0 -0 -0 -0
-0 -0 -0 -0 -0 -0 -2 -1 -0 -0 -0 -7 -4 -5 -8 -6 -3 -0 -0 -0 -0 -0 -0 -0 -0 -0 -0 -0 -0 -0 -0 -0 -0 -0 -0 -0 -0 -0 -0 -0 -0 -0 -0 -0
-0 -4 -0 -0 -0 -2 -1 -1 -0 -0 -0 -0 -3 -3 -6 -7 -8 -6 -4 -0 -0 -0 -0 -0 -0 -0 -0 -0 -0 -0 -0 -0 -0 -0 -0 -0 -0 -0 -0 -0 -0 -0 -0 -0
-0 -0 -0 -5 -0 -1 -1 -1 -0 -0 -0 -1 -0 -3 -4 -5 -6 -8 -1 -6 -3 -0 -0 -0 -0 -0 -0 -0 -0 -0 -0 -0 -0 -0 -0 -0 -0 -0 -0 -0 -0 -0 -0 -0
-4 -0 -1 -4 -2 -2 -4 -2 -1 -0 -1 -3 -1 -2 -2 -6 -3 -10 -20 -12 -0 -0 -3 -6 -6 -0 -0 -0 -0 -0 -0 -0 -0 -0 -0 -0 -0 -0 -0 -0 -0 -0 -0 -0
-1 -0 -0 -1 -11 -3 -4 -1 -1 -1 -0 -0 -4 -18 -4 -4 -4 -14 -16 -1 -8 -13 -3 -12 -12 -5 -7 -8 -3 -0 -0 -0 -0 -0 -0 -0 -0 -0 -0 -0 -21 -30 -17 -42
-0 -0 -0 -0 -0 -0 -33 -34 -3 -10 -0 -35 -29 -6 -1 -4 -5 -5 -2 -4 -0 -4 -1 -0 -0 -1 -5 -9 -3 -8 -0 -0 -0 -0 -0 -0 -0 -0 -0 -21 -51 -65 -46 -59
-8 -0 -0 -0 -0 -0 -43 -9 -4 -0 -5 -30 -9 -6 -5 -4 -6 -7 -6 -5 -6 -1 -1 -0 -0 -0 -34 -22 -37 -58 -12 -4 -2 -3 -0 -0 -0 -0 -0 -0 -44 -90 -75 -73
-1 -1 -0 -0 -0 -0 -1 -0 -2 -1 -0 -1 -7 -14 -9 -2 -4 -4 -3 -3 -3 -6 -1 -0 -0 -0 -0 -0 -0 -0 -4 -13 -12 -6 -3 -1 -0 -0 -0 -0 -71 -91 -86 -115
-3 -3 -0 -0 -0 -0 -1 -2 -0 -2 -5 -0 -1 -4 -2 -8 -7 -3 -3 -2 -4 -5 -4 -1 -1 -0 -1 -1 -0 -0 -2 -13 -54 -11 -19 -21 -47 -14 -0 -37 -91 -106 -107 -151
-1 -0 -1 -0 -0 -0 -1 -0 -0 -16 -11 -0 -0 -0 -1 -27 -5 -3 -8 -3 -7 -3 -3 -5 -1 -1 -0 -0 -0 -0 -0 -0 -0 -0 -32 -49 -53 -15 -16 -54 -91 -113 -140 -225
-0 -0 -0 -0 -0 -1 -0 -1 -3 -5 -2 -0 -2 -1 -1 -0 -4 -0 -2 -5 -1 -7 -10 -2 -1 -1 -1 -0 -0 -0 -0 -0 -0 -3 -62 -88 -61 -8 -16 -16 -88 -178 -241 -303
-0 -0 -0 -0 -0 -0 -1 -0 -6 -5 -1 -0 -0 -0 -0 -1 -0 -0 -1 -1 -1 -1 -0 -2 -1 -3 -0 -0 -0 -0 -0 -5 -2 -66 -96 -28 -29 -2 -3 -39 -183 -196 -269 -138
-0 -0 -0 -0 -1 -0 -0 -5 -0 -0 -0 -0 -0 -1 -0 -1 -3 -1 -1 -0 -1 -0 -0 -0 -0 -2 -0 -3 -0 -0 -0 -2 -0 -7 -112 -8 -3 -2 -2 -66 -107 -0 -0 -0
-0 -0 -0 -0 -0 -2 -0 -0 -0 -0 -0 -0 -0 -0 -0 -1 -0 -2 -0 -0 -2 -0 -4 -1 -0 -21 -15 -24 -21 -0 -21 -0 -0 -0 -207 -15 -3 -14 -49 -69 -0 -0 -0 -0
-0 -0 -0 -0 -0 -0 -0 -0 -0 -0 -0 -0 -0 -0 -0 -0 -0 -0 -0 -0 -0 -0 -1 -10 -17 -85 -23 -17 -68 -84 -126 -0 -48 -128 -85 -8 -9 -10 -52 -3 -91 -141 -278 -305
-0 -0 -0 -0 -0 -0 -0 -0 -0 -0 -0 -0 -0 -0 -0 -0 -0 -0 -0 -0 -0 -0 -0 -0 -0 -0 -0 -62 -0 -143 -127 -47 -25 -6 -8 -24 -20 -45 -65 -99 -147 -194 -238 -246
-0 -1 -0 -0 -0 -0 -0 -0 -0 -0 -0 -0 -0 -0 -0 -0 -0 -0 -0 -0 -0 -0 -0 -0 -0 -0 -0 -0 -12 -26 -0 -0 -147 -0 -24 -49 -88 -121 -0 -1 -0 -0 -0 -0
-0 -0 -1 -8 -7 -5 -1 -1 -3 -2 -0 -0 -0 -0 -0 -0 -0 -0 -0 -0 -0 -0 -0 -0 -0 -8 -1 -0 -1 -2 -1 -4 -1 -0 -0 -0 -0 -0 -0 -0 -0 -0 -0 -0
-2 -0 -0 -0 -0 -0 -3 -0 -0 -7 -9 -13 -0 -1 -0 -0 -0 -0 -0 -0 -0 -0 -0 -0 -0 -14 -5 -3 -13 -1 -14 -17 -14 -9 -14 -0 -0 -0 -0 -0 -0 -1 -0 -0
-3 -1 -5 -0 -0 -7 -2 -0 -3 -19 -2 -0 -1 -0 -0 -0 -0 -0 -0 -0 -0 -0 -6 -6 -3 -0 -1 -8 -11 -5 -6 -10 -7 -4 -1 -1 -2 -13 -18 -0 -1 -0 -1 -201
Wind_Speed
38 39 39 39 38 39 36 32 33 20 23 35 36 44 42 42 44 40 40 37 36 37 34 32 28 30 27 24 20 26 34 32 36 28 26 30 31 32 38 35 38 48 42 37
36 36 36 36 35 33 33 32 37 32 26 37 39 40 42 41 41 41 41 44 42 35 37 37 34 34 27 26 23 24 20 40 36 38 28 29 34 35 36 38 43 41 36 42
34 34 34 34 33 30 29 30 31 25 27 34 37 38 36 37 36 40 43 43 42 43 43 39 35 36 27 23 30 28 24 30 40 37 33 26 33 33 37 35 44 37 45 40
33 33 33 33 31 28 26 26 27 25 29 27 30 33 36 37 38 35 37 40 45 43 45 42 40 35 33 27 32 31 30 31 33 43 41 33 28 34 39 42 43 45 34 32
32 33 32 31 29 26 26 29 26 27 33 35 34 35 38 42 41 39 37 37 31 40 46 42 39 39 39 33 31 32 32 33 35 45 36 42 40 36 35 40 39 39 44 43
24 29 32 30 27 21 23 23 28 28 32 32 33 34 35 35 30 32 35 33 34 35 33 35 37 37 36 34 32 34 35 31 32 41 32 33 46 39 34 31 35 34 39 39
17 19 23 28 26 21 25 26 27 26 31 32 32 29 31 35 33 37 37 31 37 37 33 39 41 39 37 34 33 30 35 34 33 33 29 35 37 23 28 38 36 32 32 32
16 14 17 20 25 25 27 25 22 25 31 30 31 31 32 34 36 39 43 42 39 37 37 39 41 42 43 42 36 30 25 29 33 35 35 34 38 21 21 23 31 31 34 34
20 19 16 18 19 24 28 27 24 22 26 30 28 31 32 34 34 36 35 34 32 34 40 41 49 52 47 46 40 36 33 31 38 35 40 34 30 26 23 25 37 22 25 34
17 13 6 17 24 10 12 27 24 24 26 31 32 32 31 30 32 33 32 29 33 36 41 46 50 52 45 53 52 44 44 42 44 41 42 44 28 28 24 27 27 20 15 21
16 15 9 12 6 13 9 10 14 23 28 33 32 33 33 31 31 36 25 31 33 35 42 46 45 48 50 48 50 45 52 47 48 45 47 48 25 31 35 29 21 25 23 18
16 14 12 7 24 6 19 5 27 14 24 30 31 32 36 36 36 33 35 33 28 23 32 33 38 45 42 47 52 47 49 52 49 47 49 29 30 35 26 24 19 24 21 25
14 12 11 11 7 16 14 14 18 16 27 33 36 35 36 38 38 33 33 33 29 29 25 28 32 38 32 40 45 41 46 42 53 44 51 46 42 29 35 25 26 27 25 25
14 10 9 9 10 14 12 8 4 13 22 26 29 28 29 28 33 34 35 36 33 27 28 33 34 38 25 32 34 37 35 39 41 47 47 42 41 47 40 35 28 30 26 20
7 7 7 8 10 12 13 15 19 21 18 15 21 27 30 34 32 33 31 31 32 33 29 33 38 37 40 40 36 45 37 32 33 42 34 39 41 37 37 31 31 29 22 13
3 1 5 7 9 10 11 12 16 18 18 15 15 19 24 25 25 36 38 24 28 33 36 33 35 38 35 40 46 37 35 31 26 32 28 32 35 35 37 30 26 21 12 6
6 4 4 7 9 11 13 13 13 14 16 13 12 15 17 19 24 24 23 34 22 26 30 33 37 36 35 39 52 42 40 38 34 35 35 35 31 31 24 24 18 13 9 7
5 2 3 7 9 8 8 12 15 15 13 13 14 14 16 19 20 5 4 3 14 23 28 32 38 36 35 42 45 42 41 41 38 43 40 38 33 30 24 20 18 15 11 9
6 3 8 11 10 10 11 15 13 14 15 13 14 15 14 17 22 21 18 9 21 23 31 36 29 37 40 40 41 41 40 41 37 39 38 36 35 24 20 16 15 14 12 10
8 15 14 12 14 14 10 11 15 15 14 11 12 16 16 18 20 22 21 19 22 25 32 25 33 40 45 45 40 40 41 38 40 41 39 37 29 24 20 19 15 13 11 9
16 16 15 13 12 10 12 13 14 14 13 13 12 15 18 18 19 21 18 17 19 21 24 29 30 35 41 46 45 41 38 40 41 38 39 28 17 17 17 15 13 11 9 8
15 14 13 13 13 13 12 11 11 12 10 11 12 13 16 17 19 19 19 20 19 19 23 25 25 29 32 34 39 41 40 39 36 40 34 20 17 15 13 12 10 7 6 5
14 15 16 17 16 15 13 12 12 10 9 10 11 12 14 18 18 16 17 17 17 16 20 21 22 23 30 37 40 39 37 33 22 18 18 15 12 11 10 9 7 7 5 4
15 15 16 15 14 14 11 3 4 7 8 6 9 12 15 16 18 16 15 17 17 16 16 14 15 18 11 20 27 24 22 20 18 14 15 13 11 9 8 8 7 6 6 8
15 18 9 12 7 3 2 3 5 10 6 5 10 14 18 18 17 18 17 17 18 17 13 11 7 3 6 11 9 10 15 14 13 11 11 10 10 8 5 5 6 7 8 9
23 18 4 3 9 7 4 5 5 4 2 9 15 13 17 16 17 16 14 17 15 14 13 6 6 9 5 5 4 5 4 5 6 6 7 6 4 4 3 4 6 8 8 10
19 14 10 12 8 8 4 4 4 4 6 7 15 16 12 14 12 13 11 9 9 13 9 9 7 7 7 6 7 6 3 4 1 5 3 3 2 3 5 6 8 9 10 11
Wind_Direction
331 328 324 319 316 314 305 292 277 288 289 264 259 255 255 258 257 263 258 260 260 260 258 258 251 253 255 260 211 226 240 250 250 242 246 248 245 242 248 254 251 246 258 263
336 333 328 322 317 317 307 284 278 282 277 262 258 259 256 258 258 256 256 255 254 258 256 256 255 253 256 262 247 216 217 243 250 251 244 245 245 246 248 251 253 255 259 253
341 339 334 324 315 312 306 287 277 273 266 265 264 260 259 255 257 258 257 257 255 252 250 253 255 251 255 259 252 255 231 246 245 246 249 247 247 247 250 251 253 258 256 258
343 340 337 329 318 310 305 283 275 282 267 266 262 262 260 258 257 258 257 257 250 250 248 248 249 254 252 261 252 254 244 244 250 248 254 252 250 253 252 251 253 254 263 263
344 338 335 330 320 311 295 281 286 285 271 269 266 262 258 256 256 259 253 252 259 248 248 248 249 250 251 259 247 247 246 250 251 250 254 254 257 254 254 254 253 256 259 262
353 344 330 326 323 324 303 297 289 284 272 268 263 261 260 257 261 256 253 261 258 249 253 258 258 259 257 257 254 245 243 244 249 252 252 258 255 249 255 254 257 257 259 263
350 349 343 327 318 315 299 294 294 284 270 269 267 271 262 258 261 255 257 261 255 252 276 266 257 253 252 254 254 254 241 244 248 252 249 248 243 248 243 259 260 261 265 268
353 343 339 331 317 306 291 296 297 286 272 274 272 270 269 267 261 259 256 259 259 265 265 256 246 243 245 245 247 249 248 245 246 248 249 258 257 285 229 232 221 264 266 269
349 347 336 328 318 303 287 286 287 292 281 269 278 273 271 264 266 262 260 259 260 259 254 247 241 237 238 238 240 244 248 249 248 245 249 232 258 259 278 276 267 257 267 268
359 357 359 273 228 314 307 282 281 280 284 276 272 269 269 271 268 265 264 263 257 256 247 243 241 240 242 239 238 237 240 242 242 245 251 253 264 264 268 267 279 280 273 277
13 28 38 21 277 295 304 320 301 276 277 273 274 270 268 270 268 257 272 265 255 252 245 243 242 243 240 244 241 240 238 239 241 244 247 250 263 264 260 278 275 276 286 293
32 39 37 58 305 137 178 162 249 305 284 275 278 272 264 265 263 263 265 260 264 261 249 248 247 245 245 242 240 241 242 238 242 245 245 261 267 259 275 272 283 279 289 285
41 47 53 74 175 199 157 165 287 306 277 275 254 261 258 253 253 259 261 258 262 264 266 257 248 243 253 244 241 243 241 248 243 249 246 251 254 263 260 274 272 272 279 284
42 56 66 85 100 97 125 136 122 316 300 286 267 266 260 260 251 252 253 257 263 269 261 252 249 243 253 247 252 250 244 240 246 249 251 254 254 253 255 258 266 267 275 286
30 56 82 97 110 119 149 174 188 192 182 194 234 251 239 232 242 246 252 254 255 254 255 249 247 251 253 253 259 244 247 249 253 250 255 253 255 252 248 258 260 260 270 281
330 66 96 119 126 132 142 152 172 173 173 186 202 246 245 240 249 217 227 261 256 253 251 252 249 250 253 247 245 247 247 253 276 263 272 267 260 259 249 253 260 259 244 238
5 40 134 148 151 159 151 128 156 173 139 164 185 187 263 267 253 255 258 222 262 259 257 251 248 251 249 248 242 246 252 261 264 269 268 265 261 257 258 242 241 231 227 227
272 278 136 118 117 158 166 178 163 151 142 131 150 168 180 217 178 255 110 229 270 260 256 253 248 247 248 245 243 251 255 259 261 263 263 260 262 259 250 241 223 212 210 221
285 206 131 124 131 131 128 83 104 145 162 138 147 148 147 202 162 149 130 108 253 259 248 243 251 242 241 244 246 250 254 256 258 264 263 252 252 249 235 215 211 210 211 208
74 94 99 100 104 108 123 106 111 125 143 143 173 173 170 155 163 157 143 138 175 221 230 249 248 246 240 242 248 254 255 258 256 255 251 248 240 233 220 217 204 200 202 202
76 78 90 96 103 106 116 117 119 125 120 136 145 159 171 165 159 162 151 150 174 196 192 197 218 232 220 229 238 249 253 253 247 245 239 239 220 207 193 189 193 199 201 203
76 78 89 94 106 113 111 104 108 104 111 118 134 139 142 151 158 155 156 189 194 181 213 205 203 233 240 232 231 233 236 234 237 231 232 211 199 182 180 183 187 191 186 181
103 90 88 88 97 87 86 77 85 92 104 119 135 150 148 152 162 161 163 158 162 171 195 198 204 223 245 236 223 219 215 219 216 189 180 174 176 180 178 179 183 189 203 246
91 84 78 86 84 79 73 45 339 77 89 113 120 136 158 149 150 159 162 166 161 176 183 196 226 248 242 210 202 205 190 165 156 153 160 162 171 185 195 210 218 236 265 279
94 76 103 82 67 56 331 307 54 72 119 119 99 135 140 144 149 147 151 146 138 142 148 154 181 112 106 131 135 120 127 142 151 165 177 187 197 201 215 248 269 281 286 292
85 93 96 59 74 49 39 45 12 11 84 114 116 131 124 123 136 133 128 134 129 133 134 120 72 61 67 49 148 155 108 124 145 166 177 178 192 211 247 285 294 294 299 305
88 82 78 77 84 78 48 4 41 75 29 54 117 112 119 137 124 124 129 130 134 150 148 126 95 96 124 88 69 63 176 172 165 198 191 220 264 311 311 305 320 322 301 304